Location: *
(51.5000°N, 0.1100°W)
Time: 21:01:29
(UTC+00:00)

Okean 2 - Pass Details

Date: 25 May 2024
Orbit: 540 x 553 km, 82.5° (Epoch: 16 June)

Event Time Altitude Azimuth Distance (km) Brightness Sun altitude
Exits shadow 00:40:21 25° 144° (SE) 1,122 4.5 -16.9°
Maximum altitude 00:42:06 39° 93° (E) 827 4.2 -16.8°
Drops below altitude 10° 00:45:49 10° 24° (NNE) 1,817 7.2 -16.7°
Sets 00:48:05 0° 17° (NNE) 2,716 8.7 -16.6°
